Regional Weather Roundup
Issued by NWS

Home | Current Version | Previous Version | Text Only | Print | Product List | Glossary Off
Versions: 1 2 3 4 5 6 7 8 9 10 11 12 13 14 15 16 17 18 19 20 21 22 23 24 25 26 27 28 29 30 31 32 33 34 35 36 37 38 39 40 41 42 43 44 45 46 47 48 49 50

000
ASUS43 KOAX 301202
RWRNE

WEATHER ROUNDUP FOR NEBRASKA
NATIONAL WEATHER SERVICE OMAHA NE
700 AM CDT MON MAY 30 2016

NOTES: SATELLITE DATA IS BEING USED TO AUGMENT CLOUD COVER ABOVE
       12000 FEET.
       "FAIR" INDICATES FEW OR NO CLOUDS BELOW 12,000 FEET WITH NO
       SIGNIFICANT WEATHER AND/OR OBSTRUCTIONS TO VISIBILITY.

  * THESE STATIONS DO NOT REPORT WEATHER SUCH AS RAIN...SNOW OR FOG.

NEZ001>004-019>022-054>056-301300-
NEBRASKA PANHANDLE

CITY           SKY/WX    TMP DP  RH WIND       PRES   REMARKS
SCOTTSBLUFF    CLEAR     49  46  90 E3        29.98S
6HR MIN TEMP:  48; 6HR MAX TEMP:  60;

ALLIANCE       CLOUDY    51  48  89 SE8       29.97S
6HR MIN TEMP:  50; 6HR MAX TEMP:  58;

CHADRON        CLOUDY    51  47  86 CALM      29.93S
6HR MIN TEMP:  50; 6HR MAX TEMP:  61;

SIDNEY         CLOUDY    52  48  86 SW12      30.01S
6HR MIN TEMP:  51; 6HR MAX TEMP:  58;

$$

NEZ057>060-069>072-079>082-301300-
SOUTHWEST NEBRASKA

CITY           SKY/WX    TMP DP  RH WIND       PRES   REMARKS
NORTH PLATTE   PTCLDY    53  51  93 E3        30.00R
6HR MIN TEMP:  51; 6HR MAX TEMP:  63;

IMPERIAL       PTCLDY    58  50  75 SW9       29.98S
6HR MIN TEMP:  57; 6HR MAX TEMP:  60; 6HR PCP: TRACE;

LEXINGTON      PTCLDY    58  52  80 SE5       30.00R
MCCOOK         CLEAR     55  50  83 SW7       30.00R
6HR MIN TEMP:  55; 6HR MAX TEMP:  66;

$$

NEZ005>010-023>029-035>040-094-301300-
NORTH CENTRAL NEBRASKA

CITY           SKY/WX    TMP DP  RH WIND       PRES   REMARKS
VALENTINE      CLOUDY    55  52  89 E6        29.97S
6HR MIN TEMP:  54; 6HR MAX TEMP:  66;

AINSWORTH      PTCLDY    54  53  94 E8        29.99R
BROKEN BOW     CLOUDY    58  54  86 N3        30.00R
6HR MIN TEMP:  56; 6HR MAX TEMP:  61;

ORD            CLOUDY    58  54  86 CALM      29.99R
6HR MIN TEMP:  55; 6HR MAX TEMP:  68;

$$

NEZ041-046>049-061>064-073>077-083>087-301300-
SOUTH CENTRAL NEBRASKA

CITY           SKY/WX    TMP DP  RH WIND       PRES   REMARKS
GRAND ISLAND   CLOUDY    62  54  74 S7        30.01S
6HR MIN TEMP:  59; 6HR MAX TEMP:  69;

HASTINGS       PTCLDY    61  53  75 SE7       30.01F
6HR MIN TEMP:  57; 6HR MAX TEMP:  67;

KEARNEY *      CLOUDY    61  52  72 CALM      30.02R
YORK           MOCLDY    59  55  88 CALM      30.03S
$$

NEZ011>018-030>034-042>045-301300-
NORTHEAST NEBRASKA

CITY           SKY/WX    TMP DP  RH WIND       PRES   REMARKS
NORFOLK        MOCLDY    63  56  78 SE9       30.00R
6HR MIN TEMP:  60; 6HR MAX TEMP:  69;

BLAIR          SUNNY     65  60  82 CALM      30.02R
FREMONT        SUNNY     61  59  95 CALM      30.02R
TEKAMAH          N/A    N/A N/A N/A MISG      30.01R
$$

NEZ050>053-065>068-078-088>093-301300-
SOUTHEAST NEBRASKA

CITY           SKY/WX    TMP DP  RH WIND       PRES   REMARKS
LINCOLN        CLEAR     63  60  90 CALM      30.02S
6HR MIN TEMP:  59; 6HR MAX TEMP:  70;

OMAHA EPPLEY   MOSUNNY   63  60  90 CALM      30.02R
6HR MIN TEMP:  61; 6HR MAX TEMP:  73;

FALLS CITY     SUNNY     67  62  84 S5        30.01R
6HR MIN TEMP:  62; 6HR MAX TEMP:  70;

PLATTSMOUTH    SUNNY     67  62  84 SW5       30.01S
$$

NEZ044-045-051>053-067-301300-
OMAHA AREA

CITY           SKY/WX    TMP DP  RH WIND       PRES   REMARKS
OMAHA EPPLEY   MOSUNNY   63  60  90 CALM      30.02R
6HR MIN TEMP:  61; 6HR MAX TEMP:  73;

BLAIR          SUNNY     65  60  82 CALM      30.02R
FREMONT        SUNNY     61  59  95 CALM      30.02R
OFFUTT AFB     SUNNY     62  62 100 N2        30.01R
PLATTSMOUTH    SUNNY     67  62  84 SW5       30.01S
$$



USA.gov is the U.S. government's official web portal to all federal, state and local government web resources and services.